EW4195 Weather Reports


Display with metric or nautical units.
time (UTC)temp
F
wind
direction
speed
MPH
gust
MPH
rain 1hr
in
rain 24hr
in
rain mn
in
humidity
%
barometer
mb
20190323105919 49 36 1.0 8.0 0.00 0.00 0.00 85 1031.0
20190323104848 50 23 0.0 8.0 0.00 0.00 0.00 85 1031.0
20190323103826 50 5 0.0 0.0 0.00 0.00 0.00 84 1031.0
20190323102814 50 0 0.0 0.0 0.00 0.00 0.00 84 1031.0
20190323101748 50 0 0.0 0.0 0.00 0.00 0.00 84 1030.9
20190323100809 50 0 0.0 0.0 0.00 0.00 0.00 85 1030.9
20190323095813 50 348 0.0 0.0 0.00 0.00 0.00 85 1030.8
20190323094752 50 351 0.0 0.0 0.00 0.00 0.00 86 1030.7
20190323093805 50 350 0.0 0.0 0.00 0.00 0.00 87 1030.7
20190323092824 50 348 0.0 0.0 0.00 0.00 0.00 87 1030.6
20190323091846 50 345 2.0 7.0 0.00 0.00 0.00 87 1030.5
20190323090847 50 304 0.0 7.0 0.00 0.00 0.00 87 1030.5
20190323085847 50 272 0.0 0.0 0.00 0.00 0.00 89 1030.3
20190323084825 49 265 0.0 0.0 0.00 0.00 0.00 89 1030.2
20190323083834 49 265 0.0 0.0 0.00 0.00 0.00 89 1030.0
20190323082830 49 265 0.0 0.0 0.00 0.00 0.00 90 1029.9
20190323081812 49 265 0.0 0.0 0.00 0.00 0.00 90 1029.9
20190323080835 49 265 0.0 0.0 0.00 0.00 0.00 91 1029.7
20190323075823 48 265 0.0 0.0 0.00 0.00 0.00 90 1029.8
20190323074849 48 265 0.0 0.0 0.00 0.00 0.00 90 1029.7
20190323073913 48 265 0.0 0.0 0.00 0.00 0.00 90 1029.5
20190323072923 48 265 0.0 0.0 0.00 0.00 0.00 90 1029.5
20190323071856 48 265 0.0 0.0 0.00 0.00 0.00 90 1029.3
20190323070905 48 265 0.0 0.0 0.00 0.00 0.00 90 1029.2
20190323065903 48 265 0.0 0.0 0.00 0.00 0.00 90 1029.2
20190323064848 48 265 0.0 0.0 0.00 0.00 0.00 90 1029.2
20190323063853 48 265 0.0 0.0 0.00 0.00 0.00 90 1029.0
20190323062917 48 265 0.0 0.0 0.00 0.00 0.00 90 1029.0
20190323061914 48 265 0.0 0.0 0.00 0.00 0.00 90 1028.9
20190323060856 48 265 0.0 0.0 0.00 0.00 0.00 90 1028.8
20190323055843 48 265 0.0 0.0 0.00 0.00 0.00 89 1028.7
20190323054844 47 265 0.0 0.0 0.00 0.00 0.00 89 1028.7
20190323053818 47 265 0.0 0.0 0.00 0.00 0.00 89 1028.6
20190323052833 47 265 0.0 0.0 0.00 0.00 0.00 89 1028.5
20190323051817 47 265 0.0 0.0 0.00 0.00 0.00 89 1028.3
20190323050836 47 265 0.0 0.0 0.00 0.00 0.00 89 1028.2
20190323045858 47 265 0.0 0.0 0.00 0.00 0.00 89 1028.2
20190323044850 47 265 0.0 0.0 0.00 0.00 0.00 89 1028.1
20190323043832 47 265 0.0 0.0 0.00 0.00 0.00 89 1028.1
20190323042825 47 265 0.0 0.0 0.00 0.00 0.00 89 1028.0
20190323041830 47 265 0.0 0.0 0.00 0.00 0.00 89 1028.0
20190323040849 47 265 0.0 0.0 0.00 0.00 0.00 89 1027.9
20190323035844 47 265 0.0 0.0 0.00 0.00 0.00 89 1027.9
20190323034820 47 265 0.0 0.0 0.00 0.00 0.00 89 1027.8
20190323033817 46 265 0.0 0.0 0.00 0.00 0.00 89 1027.7
20190323032757 46 265 0.0 0.0 0.00 0.00 0.00 89 1027.6
20190323031807 46 265 0.0 0.0 0.00 0.00 0.00 89 1027.6
20190323030739 46 265 0.0 0.0 0.00 0.00 0.00 89 1027.6
20190323025732 46 265 0.0 0.0 0.00 0.00 0.00 89 1027.6
20190323024741 46 265 0.0 0.0 0.00 0.00 0.00 88 1027.6
20190323023756 46 265 0.0 0.0 0.00 0.00 0.00 88 1027.6
20190323022743 46 265 0.0 5.0 0.00 0.00 0.00 88 1027.6
20190323021753 47 265 0.0 0.0 0.00 0.00 0.00 87 1027.5
20190323020720 47 265 0.0 5.0 0.00 0.00 0.00 87 1027.5
20190323015734 47 265 0.0 0.0 0.00 0.00 0.00 87 1027.4
20190323014744 47 265 0.0 0.0 0.00 0.00 0.00 86 1027.5
20190323013801 47 265 0.0 6.0 0.00 0.00 0.00 86 1027.4
20190323012731 47 265 0.0 0.0 0.00 0.00 0.00 86 1027.4
20190323011728 47 265 0.0 0.0 0.00 0.00 0.00 86 1027.3
20190323010656 48 265 0.0 0.0 0.00 0.00 0.00 85 1027.4
20190323005658 48 265 0.0 0.0 0.00 0.00 0.00 85 1027.3
20190323004713 48 265 0.0 0.0 0.00 0.00 0.00 85 1027.3
20190323003712 48 265 0.0 0.0 0.00 0.00 0.00 85 1027.2
20190323002658 48 265 0.0 0.0 0.00 0.00 0.00 85 1027.1
20190323001706 48 265 0.0 0.0 0.00 0.00 0.00 85 1027.1
20190323000720 48 265 0.0 0.0 0.00 0.00 0.00 85 1027.1
20190322235720 48 265 0.0 0.0 0.00 0.00 0.00 85 1027.2
20190322234650 48 265 0.0 0.0 0.00 0.00 0.00 85 1027.1
20190322233632 48 265 0.0 0.0 0.00 0.00 0.00 85 1027.1
20190322232619 49 265 0.0 0.0 0.00 0.00 0.00 84 1027.3
20190322231618 49 265 0.0 0.0 0.00 0.00 0.00 84 1027.3
20190322230555 49 265 0.0 0.0 0.00 0.00 0.00 85 1027.3
20190322225549 49 265 0.0 0.0 0.00 0.00 0.00 85 1027.4
20190322224532 49 265 0.0 0.0 0.00 0.00 0.00 85 1027.3
20190322223545 49 265 0.0 0.0 0.00 0.00 0.00 85 1027.1
20190322222604 49 265 0.0 0.0 0.00 0.00 0.00 85 1027.1
20190322221625 49 265 0.0 0.0 0.00 0.00 0.00 85 1027.2
20190322220605 49 265 0.0 0.0 0.00 0.00 0.00 85 1027.0
20190322215542 49 265 0.0 0.0 0.00 0.00 0.00 84 1027.1
20190322214531 49 265 0.0 1.0 0.00 0.00 0.00 84 1027.0
20190322213545 49 265 0.0 0.0 0.00 0.00 0.00 84 1027.1
20190322212558 49 265 0.0 0.0 0.00 0.00 0.00 84 1027.1
20190322211552 49 265 0.0 0.0 0.00 0.00 0.00 84 1027.1
20190322210608 49 265 0.0 0.0 0.00 0.00 0.00 84 1027.2
20190322205549 49 265 0.0 3.0 0.00 0.00 0.00 84 1027.1
20190322204600 49 265 0.0 5.0 0.00 0.00 0.00 84 1027.2
20190322203610 49 265 2.0 6.0 0.00 0.00 0.00 84 1027.2
20190322202534 49 263 0.0 7.0 0.00 0.00 0.00 83 1027.2
20190322201524 49 254 0.0 0.0 0.00 0.00 0.00 83 1027.2
20190322200453 49 253 0.0 0.0 0.00 0.00 0.00 81 1027.1
20190322195508 49 252 0.0 0.0 0.00 0.00 0.00 81 1027.1
20190322194531 49 252 0.0 0.0 0.00 0.00 0.00 81 1027.0
20190322193529 49 252 0.0 4.0 0.00 0.00 0.00 81 1027.0
20190322192500 49 250 0.0 0.0 0.00 0.00 0.00 80 1027.1
20190322191459 49 250 0.0 1.0 0.00 0.00 0.00 80 1027.0
20190322190507 50 250 0.0 0.0 0.00 0.00 0.00 80 1026.9
20190322185502 50 250 0.0 0.0 0.00 0.00 0.00 79 1026.7
20190322184511 50 253 0.0 0.0 0.00 0.00 0.00 79 1026.7
20190322183530 50 255 2.0 10.0 0.00 0.00 0.00 79 1026.7
20190322182529 50 257 1.0 9.0 0.00 0.00 0.00 79 1026.6
20190322181516 50 247 0.0 4.0 0.00 0.00 0.00 80 1026.5
20190322180540 50 242 0.0 0.0 0.00 0.00 0.00 80 1026.4
20190322175534 50 244 0.0 1.0 0.00 0.00 0.00 79 1026.2
20190322174542 50 242 2.0 9.0 0.00 0.00 0.00 79 1026.2
20190322173510 51 248 2.0 10.0 0.00 0.00 0.00 79 1026.1
20190322172450 51 249 1.0 7.0 0.00 0.00 0.00 79 1026.1
20190322171457 51 244 1.0 10.0 0.00 0.00 0.00 79 1026.1
20190322170442 51 251 1.0 7.0 0.00 0.00 0.00 78 1026.0
20190322165418 51 254 0.0 9.0 0.00 0.00 0.00 79 1026.0
20190322164429 51 253 0.0 0.0 0.00 0.00 0.00 79 1026.0
20190322163444 51 229 1.0 4.0 0.00 0.00 0.00 79 1026.0
20190322162457 51 250 4.0 11.0 0.00 0.00 0.00 79 1026.1
20190322161445 52 256 1.0 8.0 0.00 0.00 0.00 78 1026.2
20190322160452 51 252 4.0 14.0 0.00 0.00 0.00 78 1026.2
20190322155512 52 246 1.0 0.0 0.00 0.00 0.00 78 1026.1
20190322154459 52 249 0.0 0.0 0.00 0.00 0.00 78 1026.0
20190322153437 52 223 1.0 7.0 0.00 0.00 0.00 78 1026.1
20190322152409 52 233 2.0 10.0 0.00 0.00 0.00 78 1026.1
20190322151414 51 254 0.0 0.0 0.00 0.00 0.00 79 1026.3
20190322150414 52 253 1.0 10.0 0.00 0.00 0.00 78 1026.5
20190322145406 52 250 0.0 0.0 0.00 0.00 0.00 78 1026.4
20190322144356 52 248 2.0 10.0 0.00 0.00 0.00 78 1026.3
20190322143326 52 243 0.0 8.0 0.00 0.00 0.00 79 1026.4
20190322142346 52 232 1.0 6.0 0.00 0.00 0.00 79 1026.5
20190322141321 52 242 0.0 9.0 0.00 0.00 0.00 78 1026.5
20190322140248 52 233 0.0 0.0 0.00 0.00 0.00 78 1026.4
20190322135228 52 259 1.0 6.0 0.00 0.00 0.00 79 1026.4
20190322134237 52 250 3.0 9.0 0.00 0.00 0.00 79 1026.4
20190322133232 52 241 0.0 8.0 0.00 0.00 0.00 79 1026.5
20190322132200 51 216 1.0 7.0 0.00 0.00 0.00 81 1026.6
20190322131134 51 208 1.0 0.0 0.00 0.00 0.00 82 1026.7
20190322130107 51 229 1.0 0.0 0.00 0.00 0.00 82 1026.9
20190322125036 51 238 0.0 3.0 0.00 0.00 0.00 83 1027.1
20190322124101 50 244 2.0 9.0 0.00 0.00 0.00 83 1027.3
20190322123104 50 239 3.0 9.0 0.00 0.00 0.00 83 1027.5
20190322122110 50 213 0.0 9.0 0.00 0.00 0.00 83 1027.6
20190322121115 50 220 0.0 0.0 0.00 0.00 0.00 84 1027.7
20190322120105 50 213 0.0 0.0 0.00 0.00 0.00 84 1027.6
20190322115038 50 232 0.0 5.0 0.00 0.00 0.00 84 1027.7
20190322114051 49 243 1.0 9.0 0.00 0.00 0.00 85 1027.9
20190322113041 49 250 1.0 0.0 0.00 0.00 0.00 85 1028.0
20190322112011 49 248 1.0 9.0 0.00 0.00 0.00 85 1028.0
20190322111007 49 244 2.0 3.0 0.00 0.00 0.00 86 1028.1